Theta_e
329 331 332 333 334 333 330 329 329 331 330 328 328 328 329 331 332 332 334 335 332 333 334 332 331 330 330 329 328 328 329 330 331 329 329 330 329 326 326 326 326 327 325 321 320 320 320 320 322 324 326 328 329 330 331 332 333 333 333 333 333 333 333 332 332 332 332 332 333 333 333 333 333 333 332 332 332 331 331 330 331 331 331 331 330 330
329 331 331 332 332 331 330 329 329 331 330 328 328 328 328 328 329 330 332 333 331 332 334 333 332 331 329 329 328 328 329 329 329 329 328 329 330 327 326 327 327 326 325 323 322 320 320 321 321 323 325 327 329 330 331 331 332 332 333 333 332 332 332 332 332 332 332 332 332 332 332 333 332 332 332 332 331 331 331 330 330 330 330 331 331 331
329 328 328 329 329 329 331 330 329 330 330 330 329 328 328 327 327 330 331 330 330 331 334 335 333 330 329 328 328 328 328 328 328 328 328 328 328 327 326 327 327 327 327 327 326 321 320 322 322 322 324 325 327 328 329 330 331 332 333 333 332 332 332 332 332 332 331 331 332 332 332 332 332 332 331 331 331 331 331 331 330 330 330 330 330 331
329 326 324 325 325 326 329 330 330 331 331 331 331 329 329 328 329 330 330 329 329 331 333 334 332 329 329 329 328 327 327 326 327 327 327 328 327 327 326 326 326 327 328 328 327 323 320 320 321 321 322 325 326 327 328 329 331 332 332 333 332 332 332 332 332 332 331 331 331 332 332 331 331 331 331 331 331 331 331 331 330 330 330 330 330 330
328 325 323 323 323 324 327 329 330 332 332 331 331 331 329 329 329 330 332 330 327 329 328 328 331 329 329 330 328 327 326 324 324 326 326 326 326 326 326 325 325 325 325 325 325 324 320 317 319 322 323 324 324 325 327 328 329 331 331 332 332 332 332 332 332 332 331 331 331 331 331 331 331 331 331 331 331 331 331 330 330 330 330 330 330 330
326 323 323 323 322 323 326 329 330 331 333 332 330 330 328 329 328 329 332 330 328 330 327 327 332 331 329 330 328 327 328 324 322 323 324 323 323 323 324 324 323 323 323 323 323 324 321 317 318 320 322 322 322 324 326 327 328 329 330 330 331 331 332 332 332 331 331 331 331 331 331 330 330 330 330 330 330 330 330 330 330 330 330 330 330 329
325 323 323 323 322 323 325 328 329 329 333 333 330 329 328 328 327 328 329 329 331 333 331 328 330 332 331 329 327 326 328 326 323 322 322 322 322 322 321 321 322 322 322 322 322 322 321 318 316 318 319 320 321 323 324 325 326 328 328 329 330 331 331 332 332 332 331 331 331 330 330 330 330 330 330 330 330 330 330 330 330 330 329 330 329 329
326 325 325 324 322 324 325 327 327 328 332 332 329 328 329 328 327 327 327 328 330 331 331 329 327 330 331 328 326 325 327 327 324 323 322 321 321 322 321 320 321 321 321 322 322 322 320 317 315 316 318 319 320 322 322 323 324 325 327 328 329 330 331 331 331 331 331 331 331 330 330 330 330 330 330 329 329 329 329 329 329 329 329 329 329 329
326 326 326 325 325 325 326 326 325 326 330 330 328 328 327 327 328 326 326 327 328 329 330 328 327 330 330 329 328 326 326 327 325 324 323 322 322 321 321 321 321 321 320 321 321 322 320 316 315 316 317 317 319 320 321 322 323 323 325 327 328 329 330 331 331 331 332 331 331 330 330 330 330 330 330 329 329 329 329 329 329 329 329 329 329 329
327 327 325 325 327 326 325 325 325 326 327 328 328 328 326 327 327 327 327 327 327 328 329 327 328 330 329 328 329 326 326 326 325 324 323 322 322 321 321 321 321 320 320 320 320 320 319 317 317 316 316 317 317 318 319 321 322 323 323 325 326 327 328 329 331 331 331 331 331 331 330 330 330 330 329 329 329 329 329 329 329 329 328 329 329 329
326 327 324 325 326 325 324 325 325 325 326 327 329 328 329 330 328 327 327 327 328 329 329 326 326 328 328 327 326 325 325 325 324 324 323 322 321 320 320 319 320 319 319 320 320 319 317 315 315 316 316 316 317 318 318 319 321 322 323 323 325 326 327 328 329 330 331 331 331 330 330 330 330 330 329 329 329 329 329 329 329 328 329 328 328 328
324 324 325 327 326 324 324 326 326 326 326 329 331 329 330 330 328 326 326 326 329 331 330 326 325 327 328 327 326 325 324 324 324 323 323 322 321 320 320 319 319 318 318 319 320 320 319 317 315 314 315 317 317 318 318 318 319 321 322 323 323 324 325 326 327 328 330 330 330 331 330 330 330 330 329 329 329 329 328 329 329 328 328 328 328 328
323 323 325 327 325 324 326 327 328 327 326 328 330 331 331 330 330 330 328 328 330 331 329 327 326 328 327 326 328 327 324 323 323 322 323 322 322 321 321 321 320 320 320 319 320 321 321 321 318 313 314 317 318 318 319 320 321 321 322 322 322 323 323 324 326 327 328 329 329 330 330 330 330 330 329 329 329 329 329 329 328 328 328 328 327 327
325 323 324 326 325 323 325 327 328 327 326 326 328 330 331 331 333 333 331 331 331 330 328 328 329 329 327 324 326 325 324 324 321 322 323 322 322 322 321 321 321 322 322 320 321 320 321 323 318 313 314 317 319 321 322 322 322 322 322 322 323 324 324 323 324 325 327 328 328 329 329 330 330 330 329 329 329 329 329 328 328 328 328 328 328 328
326 326 325 325 326 325 324 325 326 326 326 326 325 327 329 330 331 331 330 330 331 330 329 328 329 330 327 326 326 324 323 324 320 319 321 321 321 321 320 321 321 323 322 321 320 320 321 321 315 313 316 317 320 322 322 321 320 320 320 321 322 323 323 323 323 323 324 326 327 328 328 329 329 329 329 329 329 329 329 328 328 328 328 328 328 328
324 325 325 323 324 325 324 324 324 325 327 326 325 327 329 327 327 329 330 328 329 331 330 328 329 331 327 324 327 326 322 322 321 319 319 319 319 319 319 320 322 324 323 322 322 322 323 319 313 313 316 317 320 320 320 320 319 320 320 320 320 321 322 323 323 323 323 323 324 325 326 327 328 329 328 328 328 328 328 328 328 328 328 328 328 328
324 325 325 324 324 324 324 323 323 325 328 327 327 328 328 326 326 330 331 328 329 332 330 328 330 330 327 325 326 325 322 322 322 320 319 318 318 319 319 319 322 325 326 327 326 324 324 321 314 313 315 317 319 320 320 320 320 321 320 320 320 320 320 321 322 322 323 322 322 322 323 324 325 326 327 328 328 328 328 328 328 328 327 328 328 328
323 325 325 324 325 324 323 324 324 324 327 328 329 328 326 327 328 329 329 329 330 330 329 329 329 328 328 328 325 324 323 323 321 320 320 319 319 318 319 319 321 324 325 325 325 324 325 323 315 313 317 319 320 321 321 321 320 320 320 319 320 319 319 320 320 320 320 320 320 320 320 320 320 321 322 323 324 325 327 327 327 327 327 327 328 327
321 324 325 323 324 325 323 324 325 324 323 325 328 327 327 330 329 327 328 330 330 329 329 329 328 327 327 327 325 325 323 321 321 321 321 321 321 320 319 319 320 320 321 322 325 326 330 329 317 314 319 320 319 320 319 319 318 318 318 317 317 317 317 318 318 318 318 318 318 318 318 318 318 319 319 319 320 321 323 325 326 327 327 327 327 327
321 322 324 323 323 325 324 323 326 326 323 322 325 326 327 329 330 329 328 328 330 330 330 330 330 329 326 323 324 324 322 321 320 320 320 320 321 321 320 319 318 319 321 323 327 331 336 331 317 314 318 318 316 317 315 315 315 315 315 315 314 315 314 315 315 315 316 316 316 317 317 317 317 317 318 318 319 319 321 322 324 326 326 327 327 327
319 320 323 323 322 325 326 323 324 327 326 325 326 326 327 328 330 331 328 327 329 329 329 330 330 329 325 322 322 322 321 321 320 320 320 319 319 320 320 320 319 320 322 324 328 331 333 327 314 313 317 315 314 314 312 312 312 312 312 312 312 312 312 312 312 312 313 314 314 315 315 315 316 316 317 317 317 318 319 321 323 324 325 326 327 327
318 319 322 323 323 324 326 324 323 324 324 325 326 327 327 327 329 331 330 328 328 328 330 331 329 329 327 321 321 321 319 320 320 320 319 319 319 318 319 319 319 320 323 326 328 327 329 326 315 312 314 313 313 313 312 312 312 311 312 312 312 312 312 311 311 311 311 311 312 313 313 314 315 315 317 318 318 319 320 322 323 324 325 326 327 327
319 321 322 321 323 325 324 323 323 325 324 323 324 324 326 327 328 330 331 330 328 327 330 330 328 331 329 322 319 320 319 318 319 319 318 318 318 318 319 318 319 323 327 329 328 325 326 322 312 310 312 313 313 314 313 312 311 311 312 311 312 312 311 311 310 310 310 311 311 312 312 312 313 314 316 318 319 320 321 322 323 324 326 326 327 327
320 322 321 321 322 323 323 321 319 320 323 325 325 323 324 326 327 327 327 328 329 328 328 330 329 330 328 325 320 319 318 317 317 317 318 319 318 318 318 317 320 325 329 327 323 321 321 316 311 312 311 310 312 314 314 312 311 311 311 311 311 311 311 310 309 309 310 311 311 311 312 312 312 313 314 316 317 319 320 322 323 324 325 326 326 326
320 321 321 322 323 323 323 323 320 318 320 323 325 323 324 325 325 326 324 323 326 328 328 330 330 327 326 327 322 319 320 319 317 316 317 318 319 318 318 318 321 325 327 323 319 318 319 318 318 317 310 308 312 314 313 313 312 312 311 311 311 311 311 310 309 309 309 310 311 311 312 313 314 314 315 315 317 318 320 322 323 324 325 326 326 326
320 321 321 322 323 323 323 324 324 322 321 322 324 324 324 324 324 325 325 324 325 327 328 328 329 328 328 327 323 321 321 320 320 318 316 316 318 318 318 320 324 325 323 321 318 318 319 318 320 319 310 308 312 314 314 313 312 312 312 311 311 311 310 310 309 308 308 308 310 311 311 312 314 315 316 317 318 320 321 323 323 325 325 326 326 326
320 322 322 321 321 321 321 322 323 324 324 323 324 324 324 324 324 324 326 326 326 326 327 327 327 328 329 326 322 321 322 323 322 321 317 314 315 317 318 320 323 323 320 318 317 317 318 317 319 319 311 307 311 314 314 313 312 312 313 312 312 311 310 310 309 309 308 308 308 309 309 310 311 312 314 315 317 319 320 321 322 323 324 325 325 325
319 321 321 321 321 320 321 323 325 325 325 324 324 325 324 324 324 324 325 325 325 326 326 326 326 326 325 324 322 321 323 324 323 322 320 316 314 316 318 320 322 320 318 317 317 318 319 318 319 320 313 307 310 314 314 313 313 312 313 312 311 311 310 309 310 309 309 308 307 307 307 308 308 309 311 313 314 316 317 319 320 321 321 323 323 324
317 318 319 320 321 320 321 322 322 323 323 322 323 324 324 324 324 324 324 323 323 325 325 324 326 325 323 322 322 320 322 324 324 325 322 318 316 317 319 321 321 320 318 318 318 319 320 320 321 323 316 307 308 312 313 313 313 312 312 312 311 311 310 309 309 309 309 309 308 308 307 307 307 307 308 309 310 311 312 313 314 315 316 317 318 319
316 318 318 319 320 320 320 320 320 320 320 321 322 322 323 324 324 324 323 322 323 324 324 323 325 324 322 321 321 320 321 322 323 324 320 318 319 321 321 321 320 320 319 318 318 318 319 321 322 324 320 310 306 310 312 312 312 311 312 312 311 311 309 308 308 308 308 308 308 308 308 307 307 307 307 307 307 307 307 308 308 309 309 309 310 311
313 318 318 318 320 319 319 319 320 319 319 320 321 321 322 322 323 324 324 323 323 323 323 324 325 324 321 320 321 321 321 320 321 321 321 321 322 322 321 320 319 319 319 318 318 317 318 320 321 323 322 313 307 309 311 311 311 311 311 311 311 310 308 307 307 307 307 308 307 307 307 306 306 306 306 306 306 306 306 306 306 306 306 306 306 306
311 315 318 319 319 319 319 319 319 319 319 320 320 320 320 321 321 323 323 323 324 324 324 324 325 323 321 320 321 320 320 320 319 321 321 321 321 321 321 319 318 319 319 319 318 317 317 319 320 322 320 313 308 308 310 310 310 310 311 311 310 308 307 306 307 307 307 306 306 306 306 305 305 305 304 304 304 304 304 304 304 304 305 305 305 305
312 313 316 318 320 320 319 319 319 319 319 320 320 318 319 320 320 321 321 322 322 322 323 324 323 321 320 320 321 320 319 318 318 318 320 319 318 318 319 319 318 318 318 318 318 317 317 317 318 318 315 310 309 310 311 311 311 310 310 310 308 306 306 306 306 306 306 306 305 305 304 304 304 304 303 303 303 302 302 302 302 303 303 303 303 303
312 313 314 316 318 320 319 319 319 319 320 323 322 317 317 319 319 320 321 321 321 322 322 322 321 320 321 322 321 320 319 318 317 317 319 319 317 316 317 318 318 318 318 317 316 315 315 315 315 312 311 311 311 312 312 311 311 310 309 307 306 306 306 306 306 305 305 305 304 303 303 302 302 302 302 302 302 302 302 302 302 302 302 302 302 302
312 312 313 314 316 318 318 318 320 321 321 323 322 318 317 317 317 319 320 320 320 321 321 322 322 322 322 320 320 319 319 319 318 319 322 324 321 318 317 317 316 317 317 315 315 315 314 316 315 310 308 310 311 311 311 311 309 308 306 305 305 305 305 305 305 304 304 303 302 301 301 301 301 301 301 301 302 302 302 302 302 302 302 302 302 302
312 312 313 314 315 316 317 317 319 320 318 317 319 318 317 317 318 320 321 320 319 320 321 321 321 321 321 320 319 319 319 320 321 321 322 324 323 320 319 318 317 317 317 316 317 317 315 314 313 310 308 308 309 309 309 309 307 306 304 304 304 304 305 305 304 302 301 301 300 300 300 300 300 300 301 301 301 301 301 301 301 301 301 302 302 301
312 312 313 314 315 316 316 316 316 318 316 316 319 321 319 318 318 319 320 319 318 318 320 320 320 320 321 321 320 320 319 321 321 320 319 320 320 319 319 319 318 318 318 315 314 314 312 310 310 309 308 307 307 308 307 306 306 304 303 303 304 304 304 303 302 301 300 300 300 299 299 299 299 299 300 300 300 300 300 300 300 300 301 301 301 301
312 312 313 314 315 315 316 316 316 317 317 318 320 323 321 318 316 317 319 319 317 317 318 319 320 320 320 321 321 320 321 322 321 319 318 318 317 317 318 319 318 318 318 315 312 310 308 308 308 308 307 306 305 305 306 305 304 304 303 303 303 303 302 301 301 300 299 299 299 299 298 298 298 298 299 299 299 299 299 299 299 299 300 300 300 300
312 312 312 313 314 314 315 317 317 316 318 321 321 319 319 319 317 318 320 319 318 316 316 318 319 319 320 321 320 319 321 322 321 319 317 317 317 317 318 318 317 317 315 312 312 311 308 307 307 306 304 304 302 303 304 304 303 302 301 302 302 301 301 300 300 299 299 299 298 298 297 297 297 298 298 298 298 299 299 299 299 299 299 299 299 299
312 313 313 313 313 313 314 316 316 315 318 323 322 317 316 317 317 319 321 322 322 318 316 316 317 318 318 319 319 320 321 321 320 318 318 320 320 318 317 316 316 318 315 311 311 312 309 306 304 302 300 301 301 301 302 302 301 301 300 300 301 300 300 299 299 299 299 298 297 297 297 297 297 297 297 297 297 298 298 298 298 298 298 298 298 298
313 313 314 314 314 313 314 315 316 316 319 322 321 317 316 317 318 320 323 324 322 318 315 315 316 317 317 317 318 319 319 319 319 319 321 324 322 319 318 316 314 313 311 308 307 308 306 303 303 301 299 300 300 300 301 301 300 299 299 300 299 299 298 298 298 298 298 297 297 296 295 295 295 295 295 295 295 295 295 296 296 296 296 296 296 296
314 314 314 314 314 313 314 315 315 316 319 319 317 315 316 318 319 321 322 320 318 317 316 316 316 316 317 317 317 318 317 317 317 319 322 323 321 319 318 317 314 311 307 304 303 303 302 300 300 300 299 299 300 299 300 300 299 298 298 298 298 298 297 297 298 297 297 297 296 295 295 294 294 294 293 293 293 293 293 294 294 294 294 295 295 295
314 315 314 314 314 314 315 315 315 317 318 316 313 312 314 316 317 317 317 318 318 317 317 316 315 316 316 316 316 316 316 316 316 316 318 320 319 318 316 314 313 312 306 302 300 300 299 298 297 297 298 300 300 299 299 298 298 297 297 297 297 297 297 297 297 297 297 297 296 295 294 293 293 293 293 292 292 292 292 292 293 293 293 293 294 294
313 314 314 314 315 315 315 315 317 319 317 313 312 313 313 313 317 319 317 316 317 317 317 316 315 315 316 316 316 315 315 316 316 315 316 317 317 315 312 309 308 307 303 299 297 297 297 296 295 295 297 298 299 298 298 298 297 297 296 296 297 297 296 296 296 296 296 296 296 295 294 293 293 293 292 292 292 292 292 292 292 292 292 292 293 293
312 312 313 314 314 314 314 315 317 321 318 313 312 314 312 311 316 318 316 315 317 317 315 315 315 315 315 315 316 316 315 315 315 315 314 315 314 310 307 305 303 300 298 295 295 295 295 295 293 293 294 296 297 296 296 297 297 296 296 296 296 296 296 296 296 296 296 296 296 295 294 294 293 293 292 292 292 292 291 291 291 291 291 292 292 292
312 313 312 313 314 314 314 314 315 317 318 315 314 316 315 314 315 315 314 315 316 315 314 313 314 315 315 315 315 316 315 315 316 314 313 311 309 304 302 301 299 296 294 293 293 293 294 293 293 292 292 294 295 295 295 296 296 295 295 295 295 295 295 295 295 295 295 295 295 295 294 294 293 293 292 292 291 291 291 291 291 291 291 291 291 291
314 313 311 312 314 314 313 314 314 313 313 315 317 318 317 316 315 314 314 313 313 314 314 313 312 313 314 314 315 315 315 315 314 311 308 306 303 300 299 298 296 294 293 292 292 292 292 292 292 291 291 292 293 294 294 294 294 294 294 294 294 295 295 295 295 295 295 295 295 294 294 294 293 292 292 291 291 291 290 290 290 290 290 290 291 291
312 312 311 311 312 313 312 313 315 314 311 312 315 315 314 315 315 314 312 311 311 311 311 309 310 312 312 311 312 313 313 312 310 307 303 300 299 298 297 296 296 294 292 291 291 291 291 291 290 290 291 291 292 293 293 293 293 293 293 294 294 294 294 294 294 294 294 294 294 294 294 294 293 292 292 291 290 290 290 289 289 289 289 290 290 290
309 310 311 310 310 311 311 311 313 313 312 312 312 312 313 314 315 314 312 310 310 310 309 307 306 308 310 311 311 311 311 308 304 302 300 297 296 296 296 295 295 293 290 289 290 291 291 290 290 290 290 291 292 292 292 292 292 293 293 293 293 293 293 293 294 293 293 293 293 293 293 293 292 292 291 290 290 289 289 289 289 289 289 289 289 290
308 310 311 311 311 310 310 311 311 311 312 312 311 311 311 309 309 310 310 309 308 309 309 308 306 305 305 305 305 308 309 304 299 297 297 296 295 295 294 293 293 290 287 288 289 290 289 290 289 289 289 290 291 291 291 291 292 292 292 292 292 292 292 292 293 293 293 292 292 292 292 292 291 291 290 289 288 288 288 288 288 288 288 288 289 289
300 304 306 307 309 309 308 308 308 310 311 309 304 303 303 303 304 305 302 300 300 299 300 303 305 305 303 300 299 302 303 299 296 296 295 294 293 292 290 290 290 289 287 287 287 287 287 288 289 288 288 289 290 290 290 290 290 290 290 290 290 290 291 291 291 291 291 291 291 291 291 290 290 289 288 288 287 287 287 287 287 287 287 287 288 289
Wind_Speed
9 6 6 8 9 13 15 16 14 6 5 9 9 7 8 7 6 5 5 6 5 6 8 10 11 11 13 16 14 11 10 9 10 9 7 7 7 8 9 10 10 10 10 15 21 25 27 30 33 34 35 35 35 36 36 36 38 39 39 38 40 41 40 39 38 38 38 37 37 36 37 40 41 40 40 41 42 42 43 42 40 40 40 40 40 40
9 11 12 11 11 10 12 15 13 10 7 5 6 8 9 8 8 5 6 7 4 5 6 7 10 11 12 14 14 11 11 11 11 12 11 9 9 8 8 11 11 8 8 10 14 19 24 27 30 32 33 34 34 36 37 37 39 40 40 40 41 40 39 40 41 40 39 40 40 39 40 42 41 41 41 42 43 43 42 41 40 40 40 40 40 40
8 13 18 17 12 7 7 11 14 15 12 6 4 6 6 6 4 4 5 6 4 4 6 7 9 11 11 14 15 14 12 11 12 13 12 11 11 10 9 9 10 8 8 9 10 14 19 24 28 30 31 34 36 37 38 39 39 38 39 40 40 40 40 41 42 41 41 42 43 41 40 39 38 37 38 40 40 39 39 40 40 41 41 41 41 41
8 14 23 21 15 12 9 8 12 14 11 10 7 6 6 4 4 5 4 4 5 6 5 5 8 10 9 11 14 14 11 9 11 13 12 11 11 12 12 10 10 11 11 11 11 11 15 19 22 26 30 34 35 35 36 37 37 37 39 40 40 40 41 42 43 43 44 42 41 40 37 35 33 32 32 32 34 35 37 37 38 40 41 41 41 41
13 15 17 17 16 16 14 10 11 11 9 12 11 10 8 5 6 6 4 3 6 8 5 2 6 8 8 10 12 11 8 8 10 11 11 11 11 11 10 10 11 12 12 12 12 11 12 15 19 25 31 33 32 34 36 36 36 38 40 41 41 42 42 43 43 43 43 40 37 35 33 30 28 28 27 27 31 35 36 38 39 41 41 41 41 41
15 12 11 15 17 17 17 13 12 11 8 11 12 14 12 7 7 7 5 4 4 7 5 4 6 8 6 11 13 10 9 10 9 11 14 12 11 10 9 11 11 11 11 11 11 11 11 15 21 25 29 29 30 34 37 36 37 39 41 42 42 43 42 42 42 42 41 40 37 34 32 30 28 27 29 32 35 36 38 40 40 39 39 40 41 41
10 10 12 17 18 17 17 14 15 15 9 9 10 13 13 9 9 9 8 6 5 7 4 5 8 8 3 9 12 12 14 15 10 11 15 13 10 10 10 10 10 10 10 9 10 10 11 15 18 22 28 29 30 35 38 36 37 39 40 41 42 43 42 42 41 41 40 40 38 37 36 35 33 31 33 36 37 36 37 38 37 37 37 39 40 41
7 12 13 16 17 15 14 13 18 17 11 12 8 10 13 13 15 13 9 7 6 4 4 2 6 8 7 7 10 12 15 17 14 12 13 12 11 12 11 11 11 11 11 9 10 11 13 16 19 23 28 30 32 35 35 35 37 39 40 40 41 42 42 41 41 40 40 40 40 39 38 38 37 37 37 36 34 34 34 34 35 36 36 37 39 40
8 14 16 17 15 12 14 16 18 17 14 13 8 11 14 16 16 12 8 8 5 1 5 5 3 7 11 6 7 11 14 17 18 16 14 13 13 14 14 14 12 13 12 11 12 14 15 19 24 27 29 31 33 34 33 35 37 38 40 40 40 40 40 40 40 39 40 41 41 40 39 38 38 38 37 34 32 32 32 33 35 35 35 36 37 39
5 9 14 16 13 11 14 14 14 16 15 8 11 13 11 10 10 9 8 7 3 3 11 10 6 7 12 6 9 9 12 16 16 14 14 14 14 15 14 14 13 13 12 12 14 17 19 22 25 26 28 31 32 33 34 34 35 35 37 39 39 40 40 38 39 39 40 41 41 40 38 37 37 36 35 33 32 31 31 32 34 34 35 36 37 38
5 2 3 8 10 12 14 12 12 17 12 6 10 8 2 1 3 5 6 4 3 6 12 15 14 11 13 8 9 9 11 14 13 12 12 12 13 13 12 12 12 12 11 13 15 16 17 20 23 23 24 28 31 32 32 30 30 31 33 36 38 40 39 38 38 38 39 40 40 40 39 38 38 37 34 33 33 32 31 32 34 34 36 37 38 38
11 6 0 2 6 9 11 10 11 13 10 7 7 6 2 0 1 2 1 3 5 7 11 18 16 13 14 10 7 8 11 13 13 12 12 12 13 12 11 11 12 13 14 14 13 11 10 14 18 18 20 25 29 29 29 29 28 29 31 33 36 38 37 36 36 36 38 38 39 40 40 40 40 38 35 34 34 34 34 35 35 34 35 35 36 36
12 12 7 3 4 8 9 8 7 7 7 5 5 7 6 4 3 3 3 4 6 8 10 13 12 11 15 13 7 6 7 10 13 12 13 15 15 13 13 15 14 12 11 10 9 9 9 10 11 14 19 23 26 27 27 26 25 25 28 30 32 34 34 34 34 35 36 37 38 39 40 40 40 38 36 36 37 37 36 35 35 33 33 33 34 34
8 12 10 5 2 8 11 9 7 6 8 8 8 9 10 7 5 7 7 5 6 8 9 8 7 8 11 11 12 11 8 9 12 11 13 15 16 16 16 15 12 8 8 9 9 10 10 10 10 13 18 22 24 25 24 22 21 21 22 24 27 29 29 29 31 33 35 36 38 38 39 40 39 38 38 38 38 38 36 35 34 34 34 34 34 35
10 10 10 12 6 9 14 13 11 9 9 12 11 9 10 8 7 7 8 8 7 5 4 6 6 6 7 5 7 14 14 11 9 10 11 11 13 13 11 9 8 8 9 9 10 10 11 11 12 15 19 21 23 23 22 20 19 19 19 21 23 25 25 26 27 30 32 34 36 36 37 38 38 38 38 38 38 38 36 35 35 35 35 34 35 36
14 9 9 17 13 13 17 14 10 9 6 8 8 8 10 10 8 4 4 7 6 3 2 4 4 4 4 5 5 6 11 12 11 10 11 11 11 10 9 9 9 9 10 9 9 11 11 11 13 16 19 21 22 22 20 18 17 18 19 19 21 22 23 23 24 26 28 30 31 32 33 35 35 36 36 37 37 37 36 35 35 35 36 35 36 36
11 8 9 17 15 16 18 14 12 11 7 5 8 10 8 7 7 4 4 1 3 5 6 5 6 5 4 9 8 5 4 11 15 12 12 13 12 10 10 10 10 9 9 9 9 10 10 9 12 16 18 18 19 18 17 17 17 17 17 17 18 19 20 22 22 23 24 25 27 28 29 30 32 33 34 36 36 37 36 36 35 36 36 36 36 36
4 5 6 14 17 17 14 13 14 12 7 5 9 9 3 1 3 3 4 3 3 7 6 8 12 10 6 8 8 9 7 11 16 15 14 14 11 10 10 10 10 11 11 9 8 7 7 6 8 13 15 15 15 14 14 14 14 14 14 15 17 18 20 21 21 22 23 24 25 27 27 28 29 30 32 33 34 35 35 35 36 36 35 35 35 35
2 2 4 10 16 13 8 8 11 9 3 1 5 7 5 3 4 4 5 5 6 7 5 10 14 11 10 9 6 10 14 13 13 14 16 15 13 12 11 11 13 13 10 6 5 6 6 6 7 11 13 12 11 11 11 12 12 14 15 16 17 19 20 20 21 22 23 24 25 26 26 27 28 29 30 31 31 32 33 35 35 35 35 35 34 34
2 3 4 6 9 10 7 6 9 9 4 2 2 3 3 4 6 7 6 5 7 8 6 9 11 6 9 12 10 12 15 13 12 12 14 16 17 16 14 14 15 13 8 6 7 7 6 6 9 12 13 12 11 11 11 12 13 15 15 16 17 18 18 19 21 23 24 25 25 25 25 25 26 27 28 28 27 29 31 33 33 33 33 33 32 33
2 4 4 2 2 7 7 7 12 13 8 4 4 7 7 5 3 3 6 6 7 8 6 8 9 6 5 9 12 12 11 11 13 13 13 14 16 17 17 16 14 10 7 7 7 7 6 7 9 14 15 14 13 12 12 13 13 13 14 14 14 14 14 15 17 19 22 23 23 23 24 24 23 23 23 24 24 25 27 28 29 30 30 30 30 30
4 3 5 3 2 7 9 10 15 16 14 11 9 10 11 10 5 4 7 6 5 6 5 6 9 7 4 6 10 11 10 11 14 15 13 13 16 16 16 15 13 10 7 8 8 7 7 7 9 15 17 16 15 14 14 13 13 13 13 12 12 12 12 11 11 13 16 18 20 22 22 22 21 19 19 19 20 21 22 23 24 25 26 27 28 27
6 3 7 7 5 8 9 6 5 8 14 16 13 11 11 9 7 8 8 4 3 5 3 3 8 7 4 6 9 11 12 12 14 15 13 13 14 14 14 13 12 9 7 9 9 9 8 9 12 17 17 16 15 14 14 14 14 14 12 11 10 10 9 9 9 11 12 14 16 18 19 19 20 19 18 17 17 18 18 18 19 19 22 24 24 24
6 3 6 7 5 6 7 4 5 5 7 13 13 12 11 9 9 9 7 3 4 8 7 6 8 6 4 5 7 9 9 9 9 11 11 11 11 11 14 13 10 8 8 9 9 9 8 9 11 12 13 14 14 14 16 17 16 15 13 12 10 8 7 7 8 9 11 12 13 14 15 15 16 17 17 17 17 16 16 16 16 16 18 20 20 21
6 5 6 7 6 5 6 6 4 3 3 7 10 12 13 13 12 8 3 2 5 10 13 10 7 7 5 4 5 6 6 7 7 8 9 10 9 10 11 10 8 7 8 8 9 8 8 9 9 9 10 14 16 17 18 18 17 16 15 13 10 7 6 5 6 7 9 10 11 11 12 12 12 13 14 15 15 14 14 14 14 15 16 17 17 18
8 8 9 10 10 8 9 9 9 7 4 4 8 13 15 17 18 12 6 7 7 8 11 11 8 6 4 4 5 6 6 7 9 9 9 10 11 11 10 9 7 7 8 10 10 10 10 10 9 9 10 13 16 18 18 18 17 16 14 13 11 8 5 5 5 5 6 8 9 10 10 10 10 11 11 12 12 12 12 12 13 13 13 14 15 15
4 7 12 15 15 14 13 9 6 7 7 6 9 14 16 19 21 16 10 11 8 6 10 10 5 4 7 10 9 6 7 9 10 9 9 10 11 10 9 9 8 8 10 11 11 10 10 10 9 9 9 12 15 17 19 19 17 16 14 13 12 9 6 6 5 5 5 6 6 7 7 8 8 9 9 10 10 10 10 11 11 11 11 12 12 12
3 7 15 18 18 18 16 10 5 6 8 10 13 17 17 18 20 18 15 14 10 9 12 10 8 9 13 17 15 8 8 10 9 9 9 10 11 10 9 9 9 10 10 10 10 10 10 10 9 8 9 12 16 18 20 20 17 15 14 14 13 10 8 7 7 7 6 6 5 5 5 5 6 6 7 7 8 8 9 10 10 10 11 11 11 12
5 9 14 17 19 20 19 17 12 8 9 11 15 18 19 20 21 21 20 19 16 13 13 12 15 17 16 18 17 10 9 9 8 9 9 9 10 10 9 9 10 11 12 12 12 11 11 10 9 8 9 12 16 18 20 20 17 15 15 14 14 12 9 9 9 8 7 7 6 5 5 5 5 5 5 6 6 7 8 8 9 9 10 11 11 12
5 10 15 16 18 21 22 22 20 17 14 13 15 17 19 21 24 24 22 22 22 19 16 14 17 17 15 17 18 12 9 9 6 5 6 8 9 8 9 11 12 13 13 14 13 11 11 10 10 10 9 11 15 18 19 20 18 16 15 16 15 13 10 9 9 9 8 7 7 6 5 5 4 4 4 4 4 5 5 6 7 8 8 9 10 11
2 7 13 12 12 17 19 19 20 20 18 19 19 17 16 18 20 22 22 20 20 20 19 18 17 14 10 12 14 10 7 8 7 6 6 7 8 9 10 12 13 14 15 15 13 11 11 10 10 10 10 12 16 19 20 20 19 17 16 17 16 14 11 10 10 9 8 8 7 7 6 5 5 4 3 3 3 3 3 4 4 5 6 6 7 8
2 3 6 9 9 11 14 17 20 19 18 22 23 20 17 16 15 17 18 18 19 19 20 19 16 11 9 10 11 8 7 10 12 10 8 8 9 11 13 13 14 15 15 13 11 10 11 12 12 12 12 14 17 19 21 21 20 19 19 19 18 15 13 12 11 11 10 9 9 9 7 7 5 4 3 2 1 1 1 2 3 3 3 4 4 5
2 2 4 6 7 9 14 16 16 15 15 16 17 18 18 18 17 17 17 20 21 19 16 16 15 14 13 13 12 11 10 11 12 12 11 11 11 11 13 14 14 14 13 13 12 13 13 13 12 12 13 16 19 23 25 26 24 23 22 21 18 16 14 13 12 12 12 11 10 9 8 6 5 4 3 2 1 1 1 2 2 3 3 3 4 4
4 4 5 4 4 7 13 11 9 12 11 5 9 18 22 23 23 22 20 22 23 19 15 13 14 15 14 12 14 17 16 12 12 13 12 9 9 10 12 14 15 14 13 11 12 13 13 11 10 11 16 21 25 27 28 27 24 23 22 20 18 16 15 15 15 14 14 12 10 9 8 6 5 5 4 3 2 1 1 1 2 3 3 4 4 5
5 6 6 4 3 3 4 5 7 10 6 2 8 17 22 24 25 23 22 22 22 19 17 15 14 13 14 16 17 19 19 14 11 11 9 7 8 10 11 13 14 12 10 9 10 11 10 8 7 9 16 22 25 26 27 25 23 22 21 19 18 17 16 17 17 15 14 13 11 9 8 7 7 6 5 4 3 1 1 0 1 2 2 3 4 5
7 6 5 4 4 3 3 5 7 4 3 2 3 5 9 14 17 16 17 20 21 20 20 21 19 17 17 18 17 18 18 11 7 8 9 9 10 12 13 14 12 10 9 9 10 9 8 10 12 15 19 22 24 26 26 26 25 24 22 20 18 18 18 18 18 16 14 13 11 10 9 7 6 5 4 3 2 1 0 1 2 2 3 3 4 5
9 7 4 4 5 4 6 9 6 5 5 5 4 4 5 9 13 14 15 18 20 21 20 20 21 19 16 14 14 15 13 6 4 7 11 13 15 15 13 12 10 10 11 9 9 10 14 18 20 22 24 25 27 28 29 29 28 26 23 21 20 20 20 19 18 16 14 12 11 9 7 6 4 4 3 2 1 1 1 2 2 3 4 5 5 6
11 9 6 5 4 3 6 9 6 7 8 7 8 9 9 12 16 15 12 13 15 16 15 15 17 18 16 14 14 14 10 7 7 10 13 18 19 14 11 11 11 10 9 7 8 10 16 20 21 23 27 28 27 28 30 30 29 26 24 23 23 22 20 19 17 14 12 11 9 7 5 4 3 3 2 1 1 2 3 3 3 4 6 7 8 9
14 11 9 8 6 5 6 8 8 7 7 7 10 13 11 10 10 8 6 9 13 13 14 16 18 19 19 19 19 17 12 9 11 14 17 19 17 14 13 12 10 7 7 9 11 12 15 17 19 21 25 26 26 28 29 29 28 26 24 23 23 21 19 17 15 12 11 9 7 5 4 4 3 2 2 2 2 3 4 4 4 5 6 7 9 10
11 9 8 8 8 10 9 8 7 5 6 7 8 9 6 6 8 6 4 8 12 15 16 18 21 22 22 21 20 17 13 12 14 14 11 9 10 11 12 11 9 9 10 14 18 20 19 19 20 21 22 25 27 28 29 28 26 24 23 22 21 20 18 16 13 12 10 8 6 5 5 4 3 3 2 2 2 3 4 5 5 6 7 8 9 11
6 6 6 8 10 11 11 10 7 3 6 8 6 7 9 11 9 6 8 8 12 16 16 18 21 22 22 19 15 12 12 15 16 9 4 9 10 11 11 12 13 13 12 14 18 20 20 21 23 24 23 25 28 28 28 28 25 22 22 22 20 19 17 15 13 12 11 9 6 6 5 5 4 4 3 3 3 3 4 5 6 7 8 10 11 12
5 4 5 8 9 9 8 9 8 6 7 8 5 8 11 9 4 8 10 8 8 9 11 15 18 17 17 16 13 12 13 16 16 10 7 9 11 11 12 11 8 6 6 8 13 18 20 19 19 20 22 24 27 27 27 27 24 22 22 21 19 18 16 14 13 12 10 9 7 6 5 5 4 4 4 4 4 4 6 6 7 8 10 11 12 14
6 5 5 6 7 6 6 6 6 6 5 4 6 4 5 7 6 6 5 6 5 5 8 11 12 13 14 13 13 15 15 14 14 12 10 10 10 11 11 10 9 8 8 10 13 20 22 19 17 19 21 23 24 24 24 25 24 22 21 20 18 17 15 13 12 11 10 9 7 5 4 4 4 4 4 5 6 7 8 9 9 10 11 12 14 15
5 6 5 5 5 5 6 6 6 5 4 8 8 5 8 9 6 3 3 5 5 5 6 7 10 12 12 12 13 14 13 13 13 12 10 10 9 9 9 9 9 9 9 10 15 21 23 19 17 19 20 20 21 19 20 23 23 21 20 19 18 16 14 12 11 10 9 8 6 4 3 2 2 3 4 6 7 9 10 11 12 13 13 14 15 16
8 8 6 5 5 5 5 6 5 4 4 7 8 7 8 10 7 4 4 6 6 5 5 6 9 10 10 11 13 12 11 12 12 11 11 10 9 7 7 7 8 9 10 12 16 21 23 21 20 20 19 18 19 17 17 20 22 21 18 16 15 14 12 11 10 9 8 7 5 3 1 1 2 4 5 7 8 10 11 13 14 15 15 16 17 18
7 6 4 3 3 5 5 4 4 4 3 4 6 4 5 8 7 6 6 7 7 6 6 6 8 9 10 11 10 9 11 12 11 9 9 8 7 7 7 7 7 9 11 13 16 20 23 23 22 21 18 17 17 18 16 17 19 19 16 13 13 12 10 10 9 7 6 5 4 2 2 3 3 4 6 7 9 10 11 12 14 15 16 17 18 19
4 4 4 3 3 5 6 6 8 9 7 5 5 6 5 6 6 6 7 8 7 6 7 7 8 9 10 10 11 12 12 10 9 7 6 7 8 8 9 9 9 9 10 13 17 21 23 21 17 17 17 17 16 17 17 16 15 15 13 11 11 10 9 9 7 6 4 3 2 3 4 5 6 6 7 8 10 11 12 13 14 15 16 17 18 20
3 4 5 5 6 6 6 6 7 8 7 4 5 5 5 6 7 6 5 5 6 4 5 6 6 7 8 9 11 12 9 8 9 8 7 7 8 8 9 10 10 10 11 14 18 20 20 17 15 15 16 16 16 17 17 15 13 12 11 10 9 9 8 7 5 4 3 2 3 4 5 6 7 8 9 10 12 13 15 16 16 16 17 17 18 20
1 2 4 5 6 7 7 7 7 7 7 6 6 6 6 6 7 6 5 4 4 5 5 3 2 4 7 9 9 9 8 7 8 10 10 9 8 9 9 10 10 11 12 15 18 20 19 17 17 17 16 15 16 16 16 15 13 12 11 10 8 7 6 5 3 2 3 3 5 6 6 7 8 8 9 11 14 16 17 17 16 17 19 19 18 18
1 2 3 4 5 6 8 10 9 7 6 6 5 6 5 3 3 3 3 3 4 5 5 4 0 1 1 3 5 8 9 7 7 9 10 8 8 9 10 10 9 9 11 16 18 20 20 19 19 19 17 16 16 16 16 15 14 12 11 9 8 6 5 3 1 2 3 5 6 7 7 7 7 8 9 12 15 17 19 19 18 17 19 20 18 17
3 3 3 2 4 5 6 7 6 6 6 4 4 4 3 2 3 2 4 4 4 5 4 2 2 2 2 2 1 3 7 8 8 10 10 8 7 8 9 10 10 9 11 15 17 16 17 18 19 19 18 17 17 17 16 14 12 10 8 6 5 4 3 1 1 2 4 5 6 6 6 6 7 8 10 12 14 16 18 21 21 19 17 16 16 16
Wind_Direction
156 181 215 213 208 204 205 210 219 214 172 201 209 221 227 225 243 214 221 260 196 198 236 224 229 224 229 245 240 238 240 233 245 251 248 247 244 238 234 235 233 231 236 239 238 237 235 231 229 228 227 227 227 227 227 225 225 225 225 224 226 227 225 223 222 222 221 221 222 223 225 228 231 232 233 235 238 239 241 242 241 241 241 241 242 243
163 197 218 214 215 212 209 209 217 232 226 199 192 217 228 221 239 229 218 252 208 196 246 230 237 236 227 243 244 234 235 236 238 242 242 238 240 240 233 238 236 236 244 241 242 240 237 235 232 230 227 225 224 225 225 226 227 226 224 224 227 227 224 222 223 222 221 221 222 223 224 228 230 231 231 233 236 237 239 240 240 241 242 242 242 242
183 207 214 208 207 209 213 209 210 224 228 223 202 211 231 215 233 267 242 244 216 215 247 229 241 247 232 238 244 235 226 228 230 231 233 230 233 239 234 238 242 247 254 247 248 246 239 237 234 230 227 225 225 226 226 227 227 225 224 225 227 226 224 224 223 222 223 225 226 226 228 229 231 233 234 235 236 237 238 239 240 241 242 242 242 242
194 211 212 205 201 202 210 208 212 222 222 227 222 213 232 186 171 242 253 250 235 231 236 223 243 251 237 239 247 242 228 223 232 231 231 229 228 235 234 233 238 240 245 247 248 251 246 240 235 230 228 227 226 227 227 226 225 224 224 225 226 226 227 227 225 224 226 227 228 228 230 232 234 237 238 239 239 239 240 240 239 241 241 241 241 242
209 216 207 202 204 206 211 208 212 223 220 223 221 219 228 182 181 223 232 245 252 246 233 210 269 261 225 229 246 249 232 218 228 231 236 238 232 237 242 240 238 236 238 241 240 243 244 238 235 231 230 229 227 227 228 226 224 224 226 227 228 228 228 228 227 226 225 226 227 227 229 233 236 239 239 239 239 238 238 239 239 240 239 239 241 241
222 214 174 194 207 204 210 211 210 216 225 229 220 219 222 195 202 222 207 218 253 256 230 168 255 266 204 210 230 236 235 226 216 220 229 235 235 235 240 241 241 241 241 241 240 242 242 238 237 235 233 231 229 230 231 229 227 227 228 229 229 229 229 228 228 227 224 222 223 223 223 225 228 232 232 232 235 236 236 238 239 239 239 239 240 240
227 207 168 194 205 200 208 213 209 207 222 238 212 206 216 205 212 218 204 206 216 247 255 174 228 264 219 209 218 216 232 235 216 214 225 226 229 229 229 233 236 241 242 243 245 245 245 243 240 240 238 233 231 234 235 233 232 230 230 229 229 229 229 228 228 227 223 221 221 222 223 224 225 228 232 233 235 237 238 240 240 240 240 239 240 240
198 198 185 194 198 200 206 211 209 196 208 238 202 174 200 207 216 215 204 219 226 256 302 213 218 264 261 225 212 204 221 238 229 219 225 223 227 230 230 229 227 233 235 232 239 240 239 239 237 239 241 238 238 241 239 236 235 233 231 230 229 230 229 228 228 226 223 221 221 222 224 227 228 231 235 237 238 239 240 242 243 242 241 241 241 241
184 195 194 192 193 202 207 211 206 188 208 234 176 162 202 210 214 210 200 227 244 283 262 237 174 262 261 219 195 205 210 230 234 225 223 221 225 230 233 233 231 233 233 229 235 240 238 238 238 241 245 246 246 246 244 241 240 237 234 232 230 230 229 227 227 226 225 224 223 223 225 227 230 234 237 239 241 242 242 242 244 243 243 243 242 242
204 203 202 196 195 206 212 212 198 191 212 212 150 171 207 208 207 205 206 221 215 211 236 228 177 234 264 217 178 206 208 219 231 229 225 222 224 231 234 237 239 239 239 237 238 242 241 241 242 244 247 249 251 251 249 245 241 237 235 233 231 231 231 229 227 226 226 225 224 224 225 228 231 234 237 239 241 242 242 243 243 243 244 244 243 243
250 283 216 209 208 207 208 203 195 199 201 138 135 172 187 112 212 224 222 205 195 223 231 226 202 210 259 242 183 204 209 207 220 226 228 228 227 234 234 234 237 238 238 238 238 243 248 249 249 247 246 249 252 252 248 244 239 236 234 232 232 233 233 230 229 227 226 226 225 226 227 229 232 234 235 237 238 240 240 241 242 242 244 244 244 244
248 259 225 242 227 202 196 195 198 201 184 138 151 173 148 14 300 299 257 188 215 228 222 225 214 205 242 247 186 204 211 200 207 214 218 223 223 227 230 229 231 232 235 238 242 248 253 254 251 244 240 243 248 248 245 243 240 237 235 233 232 234 234 231 230 227 227 226 226 228 230 231 233 234 234 235 237 238 238 239 241 241 242 243 243 243
237 233 199 193 224 193 184 186 195 193 178 176 173 174 193 203 195 208 205 204 223 233 227 221 208 209 241 248 220 223 226 208 209 207 208 216 221 223 227 232 234 234 237 243 245 245 241 242 242 235 231 235 240 241 239 238 237 235 234 232 232 235 236 233 231 230 229 228 229 230 231 232 234 235 235 236 238 240 239 240 240 240 240 241 241 241
233 235 209 194 219 194 193 187 188 183 177 190 181 180 197 191 193 212 211 216 220 232 237 207 183 217 247 249 227 220 220 217 218 215 212 217 223 225 226 233 243 243 238 238 236 235 233 234 234 228 225 226 229 229 227 228 230 232 234 234 235 239 240 236 232 231 231 231 232 233 233 235 235 236 236 237 239 241 241 241 241 241 241 241 241 242
220 236 199 193 188 177 198 205 193 180 182 195 190 190 199 192 204 213 209 221 218 224 226 171 168 208 216 228 225 215 212 207 210 219 221 226 232 234 237 246 255 248 237 233 230 230 229 226 223 219 217 215 215 215 216 222 230 234 236 237 238 242 244 239 235 233 233 234 236 236 236 237 237 238 239 240 242 242 242 242 242 243 243 243 245 247
219 243 179 190 197 177 196 213 191 174 189 198 191 201 209 201 209 230 233 220 199 202 202 177 209 227 222 279 293 237 219 204 201 208 214 227 236 238 245 244 237 235 235 231 226 230 230 222 212 208 208 207 208 211 217 226 234 239 241 241 241 244 246 244 240 237 237 238 239 239 239 240 240 240 241 242 244 245 245 244 243 244 245 246 249 251
212 237 173 182 201 195 197 202 185 181 188 183 192 206 213 202 197 224 264 225 138 206 206 187 232 254 277 278 257 220 205 205 207 202 201 218 224 223 230 230 222 225 232 227 220 223 223 213 204 202 204 206 208 213 221 230 237 242 244 244 244 246 247 246 245 244 244 243 243 243 244 244 244 244 245 245 247 248 249 248 247 248 248 249 251 253
192 239 194 178 198 206 197 192 198 201 186 177 199 192 147 107 169 173 230 212 176 225 212 192 219 221 219 251 228 190 194 211 212 207 209 218 219 220 229 229 228 227 227 226 226 233 233 223 207 200 201 205 208 214 220 226 232 237 240 241 242 244 244 245 246 247 248 247 248 248 248 248 249 249 250 251 251 252 251 250 250 249 249 250 252 254
163 259 256 189 194 197 174 178 211 219 180 159 219 184 144 183 197 174 207 217 209 225 217 208 222 215 204 229 224 192 203 212 209 212 220 224 224 229 233 234 237 234 225 217 225 236 238 232 207 189 187 189 193 202 211 218 226 232 237 240 242 244 244 245 246 245 246 246 247 249 249 250 250 251 253 253 254 253 251 252 252 250 251 252 254 255
174 222 250 211 189 176 155 177 209 208 172 55 295 216 195 212 204 192 202 222 221 223 222 217 222 208 201 222 224 209 209 205 199 208 217 220 224 228 229 231 236 236 222 201 210 221 220 214 192 174 172 177 182 192 204 214 222 227 232 235 238 242 243 244 245 245 244 244 244 246 247 248 250 251 253 254 255 254 252 253 253 252 254 255 256 256
182 211 230 257 182 173 177 196 201 198 182 164 195 205 210 213 203 198 211 220 225 227 225 223 227 214 192 213 217 213 209 196 195 204 208 212 219 224 227 230 236 240 225 202 206 208 202 198 181 171 171 173 175 184 193 200 205 207 210 213 217 224 229 235 240 243 245 244 243 244 245 247 251 254 256 256 255 255 255 256 256 256 258 258 258 257
181 198 211 226 204 197 206 206 202 201 192 190 202 203 205 206 195 208 220 215 221 226 215 226 242 238 210 204 203 203 200 190 196 203 203 210 216 220 228 231 234 236 214 197 198 194 187 184 178 174 172 170 172 179 187 191 193 195 198 200 206 214 221 228 234 240 244 243 241 242 244 247 250 254 257 256 255 256 258 259 259 260 260 258 259 259
175 166 212 226 230 217 220 214 218 218 202 204 214 208 208 211 202 217 224 199 195 222 208 235 248 240 209 196 195 201 200 190 196 200 198 208 216 219 227 231 232 224 198 190 190 185 186 183 179 177 173 172 175 181 189 194 196 199 201 204 211 219 228 235 236 237 238 239 239 241 243 246 248 250 253 254 255 256 258 261 262 261 260 259 260 260
171 154 208 231 252 244 247 280 336 321 219 213 219 211 211 212 205 221 234 198 197 210 205 226 240 231 220 205 202 211 208 197 203 202 199 209 216 220 226 228 227 213 198 198 191 185 187 179 174 174 173 175 179 184 190 194 197 201 203 205 209 217 232 242 243 239 237 235 235 238 240 243 245 246 248 251 254 256 258 261 262 261 261 262 262 262
188 183 194 220 233 232 240 247 267 294 247 224 220 211 211 211 209 223 252 242 226 210 205 220 232 222 228 225 211 219 216 213 223 213 203 210 216 221 227 227 219 207 198 197 193 185 180 174 175 180 180 181 184 188 192 193 196 201 203 204 205 210 226 240 245 244 242 239 235 236 237 240 243 245 245 247 250 253 255 257 258 259 260 261 261 262
195 188 189 210 217 215 219 220 218 212 208 224 220 209 206 205 207 212 222 228 226 205 205 220 229 228 262 286 241 216 202 209 226 223 211 214 219 220 224 221 209 199 194 192 189 185 180 179 184 188 185 185 187 190 192 193 197 200 202 202 201 205 217 227 234 237 241 243 241 239 240 242 245 247 248 248 247 249 252 253 255 256 258 259 260 260
191 195 202 212 217 222 225 226 213 191 186 202 213 212 210 208 207 208 218 227 223 221 226 225 218 234 265 263 247 216 199 207 216 218 213 218 225 223 220 218 205 195 195 191 185 183 181 182 189 190 189 188 191 194 194 194 196 198 201 200 197 200 208 212 216 219 224 230 233 237 240 243 246 249 250 251 250 249 250 251 251 252 254 256 257 258
199 210 214 219 224 228 228 223 187 159 181 200 208 212 213 213 212 213 220 223 217 230 238 219 192 211 236 243 238 216 207 215 212 210 211 212 218 217 210 207 202 198 196 189 186 183 180 184 190 192 192 191 194 197 196 196 197 198 201 199 195 196 203 208 209 209 209 209 207 210 215 222 234 241 245 247 248 247 246 246 247 247 248 250 251 253
218 222 217 220 227 231 231 229 219 198 199 207 210 213 212 212 214 217 222 222 216 224 234 218 208 214 225 239 241 223 209 219 214 210 215 214 212 208 196 191 194 197 194 191 192 188 184 188 191 192 194 193 195 197 196 197 198 198 197 194 191 194 202 206 205 201 199 198 196 194 190 194 206 218 230 239 243 245 247 248 250 250 250 251 250 252
221 223 217 218 226 229 229 231 230 222 216 219 219 216 216 215 215 217 221 222 222 227 232 227 225 223 221 234 242 228 211 220 218 204 211 214 207 193 186 190 194 195 194 193 193 191 190 192 193 196 195 192 194 195 194 193 193 193 191 188 190 197 203 204 199 191 187 184 182 181 178 181 186 195 209 221 229 236 243 247 252 255 255 255 254 255
254 228 220 216 226 233 230 230 231 225 219 224 224 218 220 225 224 222 223 222 224 230 231 231 236 235 227 235 241 230 210 221 228 218 215 214 200 186 190 197 195 194 196 196 195 193 192 194 197 199 197 196 197 193 189 187 186 187 188 189 194 199 200 199 189 177 172 169 166 165 164 164 168 171 178 188 205 221 234 243 250 255 255 257 260 260
301 270 235 217 222 233 226 224 231 231 227 230 227 217 214 222 227 227 225 222 220 221 224 229 234 234 230 238 243 231 210 217 223 221 220 217 202 191 193 198 200 198 196 194 194 193 195 198 199 200 200 198 193 186 183 182 180 183 188 191 196 196 191 188 179 168 164 161 159 158 157 158 158 157 160 161 181 225 269 277 277 279 279 282 283 281
208 287 272 227 223 229 220 219 226 229 233 235 226 217 213 214 219 224 228 230 224 218 218 223 226 226 224 228 238 238 224 216 215 215 215 213 206 199 197 198 200 201 196 193 194 195 199 202 200 198 198 193 188 186 185 183 181 185 190 191 191 187 181 176 171 166 161 158 159 158 157 159 157 154 152 137 101 35 17 354 334 333 340 340 328 322
191 231 264 251 243 233 221 215 215 228 240 225 187 206 216 216 214 217 222 225 223 220 221 224 226 226 221 221 230 235 232 216 207 215 219 209 201 204 206 204 202 201 198 196 197 199 201 202 199 196 195 192 190 187 184 184 186 188 188 186 182 177 174 170 167 165 160 157 160 159 157 158 155 152 152 140 125 91 48 5 347 349 350 344 333 328
202 225 243 243 256 254 227 207 212 230 249 111 167 203 217 220 219 221 225 226 224 224 227 231 230 220 216 220 225 233 237 223 199 210 221 209 198 200 207 213 211 203 195 193 204 211 207 196 187 192 196 193 187 181 178 180 183 181 179 178 175 171 171 169 164 162 161 159 158 157 156 154 152 152 152 150 153 157 156 282 325 325 319 319 318 319
210 223 230 228 225 230 244 229 224 247 325 345 267 239 224 222 221 224 234 233 225 220 220 223 223 216 214 219 223 233 239 224 186 206 219 212 206 202 206 211 206 200 201 198 195 200 204 200 194 194 193 187 178 174 175 177 176 173 171 171 171 169 169 168 164 161 162 160 156 156 154 153 155 156 155 157 160 163 45 358 339 324 320 321 319 320
210 215 223 239 223 213 242 246 249 286 284 264 264 250 205 202 204 209 228 236 227 219 219 221 221 219 218 220 226 234 236 218 206 234 231 225 223 216 211 210 201 200 209 201 184 192 207 210 203 193 185 177 173 173 174 174 172 169 165 164 166 166 166 167 164 162 161 156 152 153 152 152 155 152 150 152 127 36 8 11 358 343 339 336 331 335
206 207 204 226 227 208 243 252 249 254 249 231 220 217 202 199 204 205 218 239 236 225 220 221 222 221 219 220 226 229 227 224 233 236 229 227 227 222 215 219 216 208 200 180 168 191 208 206 199 188 178 172 172 174 172 171 170 166 161 161 163 163 163 164 162 158 155 150 147 146 142 140 142 134 121 97 57 28 18 19 6 352 349 342 335 335
205 208 208 223 235 228 235 247 239 235 245 233 219 219 212 198 193 187 203 241 243 224 209 211 219 220 219 220 222 221 219 221 230 237 232 224 220 221 221 221 218 209 201 195 195 208 214 202 188 181 174 169 170 172 171 170 168 163 158 159 161 161 161 162 159 154 152 148 144 143 137 131 129 116 91 55 34 17 10 7 358 350 345 339 333 330
204 205 208 214 228 230 230 242 245 240 256 245 215 210 200 141 123 139 203 240 236 220 204 203 213 218 218 219 220 220 218 219 229 240 236 203 194 213 222 220 214 211 214 213 212 215 213 196 176 171 173 171 169 169 169 167 164 159 156 157 158 158 158 159 157 154 153 149 143 138 131 124 117 103 81 56 36 19 5 356 348 343 336 331 330 326
202 201 206 210 222 226 226 239 252 255 247 237 205 157 131 109 112 181 218 230 226 216 205 204 211 215 217 219 220 221 222 226 231 232 148 142 169 196 210 214 216 219 219 214 208 200 190 181 175 172 172 169 165 163 164 163 157 153 154 154 155 155 156 157 157 156 155 150 141 132 118 108 101 90 77 64 45 24 9 357 343 338 335 332 329 326
194 196 203 208 218 224 226 237 250 258 239 216 174 135 134 133 174 218 221 241 243 218 205 211 215 216 218 218 218 221 223 229 233 224 172 170 186 193 200 201 195 194 191 187 186 176 167 166 169 163 159 160 159 158 161 159 152 149 153 153 153 154 154 157 159 159 158 153 144 131 114 100 93 84 69 48 29 14 6 2 351 341 338 334 330 327
188 194 202 201 204 214 225 225 232 256 248 153 115 112 168 192 215 218 228 272 274 216 203 212 216 219 220 217 219 225 225 227 230 225 209 202 198 191 194 188 173 167 158 150 163 167 160 153 150 147 148 153 155 155 158 156 148 148 151 150 151 154 156 159 161 160 160 159 151 136 119 105 92 78 57 32 17 7 1 358 352 346 342 336 330 325
195 197 207 207 192 192 211 212 207 223 191 145 148 184 211 212 203 157 197 255 255 220 203 204 215 219 214 211 218 224 225 226 226 218 208 209 205 191 183 176 166 164 157 149 156 159 151 141 137 135 136 143 146 150 158 156 148 145 147 148 152 156 157 159 162 162 164 165 160 148 129 99 70 43 25 12 3 357 354 351 347 343 340 335 328 320
204 200 209 220 211 206 216 214 205 201 182 183 199 205 207 219 216 165 189 235 246 226 198 198 216 220 211 211 217 218 219 224 222 211 203 203 198 177 164 159 151 146 142 140 143 145 141 134 129 126 125 133 139 142 153 158 150 141 140 146 152 157 160 161 162 163 163 166 170 171 162 13 4 356 355 356 353 350 349 346 342 337 334 330 325 317
217 205 213 235 233 238 241 235 238 247 228 223 242 237 213 227 228 203 210 240 245 226 205 201 209 207 205 209 211 214 222 222 215 207 197 187 173 153 142 138 134 134 135 133 134 136 133 127 125 124 121 125 132 133 139 147 144 136 134 143 152 157 161 160 159 158 158 166 182 205 267 309 325 332 335 341 343 342 342 340 334 329 325 321 317 312
249 206 201 218 221 223 227 225 234 244 236 214 230 243 242 248 243 214 216 241 250 235 217 213 213 208 205 204 205 215 224 214 194 185 174 161 156 148 140 136 133 131 132 133 135 134 130 127 127 126 122 122 127 129 129 131 132 129 131 141 150 155 158 157 157 160 162 174 211 247 277 296 308 314 318 326 332 332 332 332 327 320 315 312 309 306
245 194 193 213 224 228 236 239 242 258 266 244 228 237 246 251 247 231 227 254 274 265 231 220 217 209 205 207 211 214 213 192 172 164 159 156 153 147 144 142 139 133 127 127 130 129 126 124 124 124 122 120 122 124 124 122 123 125 127 133 141 147 150 152 157 167 177 211 247 262 274 284 294 300 306 315 322 325 325 325 322 314 307 304 301 296
187 172 184 201 218 236 256 262 264 285 295 273 241 233 238 242 239 233 227 227 235 236 226 216 224 220 213 211 207 194 182 178 172 161 153 152 150 145 144 140 134 128 125 125 126 125 123 122 121 120 118 118 120 123 120 116 116 118 120 122 126 132 140 147 164 189 219 250 262 269 276 281 285 291 301 311 318 320 320 318 316 309 302 300 298 290
196 215 203 186 203 229 242 242 242 250 263 262 251 239 238 233 224 243 261 253 238 237 222 200 190 348 241 215 202 183 172 168 160 149 141 140 141 137 134 129 123 117 117 119 119 119 119 120 118 114 111 113 119 119 114 111 111 110 110 112 111 117 130 145 195 243 260 273 278 284 286 284 282 288 301 313 317 317 316 314 313 308 300 297 297 289
319 300 299 256 242 242 245 256 261 246 241 270 334 343 328 23 84 64 9 355 340 337 330 297 314 17 65 56 35 166 162 149 139 133 124 116 116 115 112 112 111 110 111 112 111 110 109 111 112 108 105 109 114 115 111 107 104 102 103 103 104 117 139 172 255 276 288 294 295 297 295 291 293 301 309 315 316 315 315 313 313 309 301 295 294 289